Regional Weather Roundup
Issued by NWS Jackson, KY

Home | Current Version | Previous Version | Text Only | Print | Product List | Glossary Off
Versions: 1 2 3 4 5 6 7 8 9 10 11 12 13 14 15 16 17 18 19 20 21 22 23 24 25 26 27 28 29 30 31 32 33 34 35 36 37 38 39 40 41 42 43 44 45 46 47 48 49 50

000
ASUS43 KJKL 261510
RWRJKL

EAST KENTUCKY HOURLY WEATHER ROUNDUP
NATIONAL WEATHER SERVICE JACKSON KY
1000 AM EST THU FEB 26 2015

NOTE: "FAIR" INDICATES FEW OR NO CLOUDS BELOW 12,000 FEET WITH
NO SIGNIFICANT WEATHER AND/OR OBSTRUCTIONS TO VISIBILITY.

* THESE REPORTS ARE NOT UNDER NWS QUALITY CONTROL AND MAY NOT
  REPORT WEATHER SUCH AS PRECIPITATION AND FOG.

KYZ079-080-083-085-087-088-110-112-115-119-120-261600
...EASTERN KENTUCKY...

CITY           SKY/WX    TMP DP  RH WIND       PRES   REMARKS
JACKSON        CLOUDY    30  19  63 VRB3      29.89R
LONDON         CLOUDY    32  24  72 N8        29.92R WCI  25
SOMERSET*      CLOUDY    30  25  80 NW8       29.97R WCI  23
MONTICELLO*    CLOUDY    33  27  79 NW7       29.98R WCI  27
MIDDLESBORO*   CLOUDY    32  28  86 CALM      29.92R
HAZARD APT*    CLOUDY    32  27  80 W5        29.90R WCI  27
BLACK MTN*       N/A     27  25  93 NE2         N/A
PIKEVILLE APT* CLOUDY    28  25  86 NW3       29.86R
BIG SANDY*     CLOUDY    32  22  67 N6        29.88R WCI  26
MOREHEAD APT*  MOSUNNY   27  16  63 NW5       29.95R WCI  21
$$

KYZ035-036-041-042-044-050-067-078-099-261600
...CENTRAL KENTUCKY...

CITY           SKY/WX    TMP DP  RH WIND       PRES   REMARKS
MT STERLING*   SUNNY     27  18  69 N6        29.96R WCI  20
DANVILLE*      SUNNY     28  19  69 N7        29.98R WCI  21
RICHMOND*      SUNNY     27  18  69 NW6       29.94R WCI  20
LEXINGTON      SUNNY     24  14  65 N10       29.97R WCI  14
FRANKFORT      MOSUNNY   26  13  57 N8        29.98R WCI  18
$$

KYZ091>093-OHZ055-061-077-WVZ005-015-034-035-042-261600
...SOUTHERN OHIO/WEST VIRGINIA...

CITY           SKY/WX    TMP DP  RH WIND       PRES   REMARKS
COVINGTON      CLOUDY    20   9  62 N10       30.00R WCI   9
COLUMBUS       CLOUDY    16   7  67 N14       30.01R WCI   2
DAYTON         LGT SNOW  14   8  77 N16       30.04R WCI  -2
WILMINGTON     CLOUDY    15   6  67 N13G21    29.99R WCI   1
HUNTINGTON     CLOUDY    29  17  61 N8        29.91R WCI  21
CHARLESTON     CLOUDY    32  19  58 VRB3      29.87S
PINEVILLE*     CLOUDY    35  31  86 MISG      29.85F
BECKLEY        CLOUDY    30  24  78 CALM      29.78S
BLUEFIELD      CLOUDY    30  22  72 CALM      29.77S
$$

VAZ002-007-008-TNZ017-027-036-066-071-261600
...SOUTHWEST VIRGINIA/EAST TENNESSEE...

CITY           SKY/WX    TMP DP  RH WIND       PRES   REMARKS
WISE*          CLOUDY    30  25  80 CALM      29.80R
JONESVILLE*    LGT RAIN  32  30  93 CALM      29.89R
ABINGDON*      CLOUDY    33  29  83 CALM      29.81R
BRISTOL        PTSUNNY   33  29  85 SW3       29.85R
KNOXVILLE      CLOUDY    31  29  92 SW6       29.92R FOG     WCI  25
OAK RIDGE      CLOUDY    34  31  88 CALM      29.94R
CROSSVILLE     CLOUDY    29  25  85 NW7       29.91R WCI  22
NASHVILLE      MOSUNNY   35  28  75 W7        30.02R WCI  29
$$

...KEY TO REMARKS...
VSB - VISIBILITY IN MILES
WCI - WIND CHILL INDEX
HX  - HEAT INDEX

$$



USA.gov is the U.S. government's official web portal to all federal, state and local government web resources and services.